Location: Ballingbuur
(53.0000°N, 5.7667°E)
Time: 06:41:30
(UTC+00:00)

MOS 1 Rocket - Pass Details

Date: 29 November 2020
Orbit: 614 x 831 km, 97.4° (Epoch: 23 January)

Event Time Altitude Azimuth Distance (km) Brightness Sun altitude
Rises 05:10:38 0° 163° (SSE) 3,089 7.0 -19.2°
Reaches altitude 10° 05:12:49 10° 163° (SSE) 2,207 6.2 -18.9°
Maximum altitude 05:17:42 88° 78° (ENE) 763 3.4 -18.2°
Drops below altitude 10° 05:22:56 10° 347° (NNW) 2,360 5.8 -17.4°
Sets 05:25:20 0° 347° (NNW) 3,320 6.5 -17.1°
